SV7BVZ Weather Reports


time (UTC)temp
C
wind
direction
speed
KPH
gust
KPH
rain 1hr
cm
rain 24hr
cm
rain mn
cm
humidity
%
barometer
mb
20260508040005 15 90 0.0 4.8 0.00 0.00 0.00 86 1016.5
20260508030005 15 13 0.0 4.8 0.00 0.00 0.00 87 1016.2
20260508020007 14 90 0.0 0.0 0.00 0.00 0.00 89 1016.5
20260508010008 15 30 0.0 3.2 0.00 0.00 0.00 88 1016.6
20260508000007 13 90 0.0 0.0 0.00 0.00 0.00 92 1017.0
20260507220005 15 90 0.0 0.0 0.00 0.00 0.00 91 1017.4
20260507210005 15 90 0.0 0.0 0.00 0.00 0.00 91 1017.4
20260507200005 16 90 0.0 1.6 0.00 0.00 0.00 89 1017.5
20260507190006 17 135 0.0 4.8 0.00 0.00 0.00 87 1017.7
20260507180005 17 225 0.0 4.8 0.00 0.00 0.00 85 1017.3
20260507170007 17 195 1.6 11.3 0.00 0.00 0.00 83 1016.9
20260507160005 18 180 4.8 12.9 0.00 0.00 0.00 80 1016.7
20260507150006 19 180 4.8 19.3 0.00 0.00 0.00 74 1016.9
20260507140007 21 210 8.0 19.3 0.00 0.00 0.00 64 1017.3
20260507130005 22 225 8.0 27.4 0.00 0.00 0.00 58 1017.6
20260507120007 23 225 8.0 24.1 0.00 0.00 0.00 57 1017.8
20260507110008 23 192 9.7 24.1 0.00 0.00 0.00 57 1017.7
20260507100005 23 225 8.0 20.9 0.00 0.00 0.00 57 1017.4
20260507080005 21 225 4.8 14.5 0.00 0.00 0.00 65 1017.4
20260507070009 20 0 0.0 8.0 0.00 0.00 0.00 63 1017.5
20260507060005 18 90 0.0 0.0 0.00 0.00 0.00 58 1017.5